AirNav   TITAN Aviation Fuels
 
 590 users online  

13MI Lee Memorial Hospital Heliport
Dowagiac, Michigan, USA

GOING TO DOWAGIAC?


FAA INFORMATION EFFECTIVE 22 APRIL 2021

Location

FAA Identifier: 13MI
Lat/Long: 41-58-59.8900N 086-06-52.4100W
41-58.998167N 086-06.873500W
41.9833028,-86.1145583
(estimated)
Elevation: 748 ft. / 228 m (estimated)
Variation: 02W (1985)
Time zone: UTC -4 (UTC -5 during Standard Time)
Zip code: 49047

Heliport Operations

Heliport use: Private use, MEDICAL USE.
Activation date: 02/1987
Control tower: no
ARTCC: CHICAGO CENTER
FSS: LANSING FLIGHT SERVICE STATION
Attendance: CONTINUOUS
Wind indicator: lighted
Segmented circle: no

Heliport Communications

WX ASOS at BEH (16 nm NW): 121.55 (269-925-9008)
WX AWOS-3 at EKM (17 nm S): 124.475 (574-264-9002)
WX ASOS at SBN (19 nm SW): PHONE 574-251-2656

Nearby radio navigation aids

VOR radial/distance  VOR name  Freq  Var
ELXr178/9.7KEELER VOR/DME116.6000E
GIJr035/15.8GIPPER VORTAC115.4000E
GSHr352/27.8GOSHEN VORTAC113.7000E
PMMr181/29.0PULLMAN VOR/DME112.1000E
AZOr240/29.3KALAMAZOO VOR/DME109.0001W

 
NDB name  Hdg/Dist  Freq  Var  ID
STURGIS293/32.138204WIRS .. .-. ...

Heliport Services

Runway Information

Helipad H1

Dimensions: 60 x 60 ft. / 18 x 18 m
Surface: asphalt/turf
Latitude: 41-58.998167N
Longitude: 086-06.873500W
Elevation: 748.0 ft.
Traffic pattern: leftleft
Markings: basic

Heliport Ownership and Management from official FAA records

Ownership: Publicly-owned
Owner: LEE MEMORIAL HOSPITAL
420 W HIGH ST
DOWAGIAC, MI 49047
Phone 269-782-8681
Manager: MARIA LUTZ
420 W HIGH ST
DOWAGIAC, MI 49047
Phone (269) 783-3042
EXT 4421. ALSO 269-303-6463.

Additional Remarks

A52-H1 150' ANTENNA 290' SW.
FOR CD CTC CHICAGO ARTCC AT 630-906-8921.

Instrument Procedures

There are no published instrument procedures at 13MI.

Some nearby airports with instrument procedures:

C91 - Dowagiac Municipal Airport (1 nm NW)
3TR - Jerry Tyler Memorial Airport (10 nm SW)
C20 - Andrews University Airpark (11 nm W)
KBEH - Southwest Michigan Regional Airport (16 nm NW)
KEKM - Elkhart Municipal Airport (17 nm S)
KSBN - South Bend International Airport (19 nm SW)
 
Loc | Ops | Rwys | IFR | FBO | Links
Com | Nav | Svcs | Stats | Notes
Area around 13MI (Lee Memorial Hospital Heliport)
 
Road maps at: MapQuest Bing Google
 
Aerial photo
No photo
 
Sectional chart

 
Airport distance calculator
Flying to Lee Memorial Hospital Heliport? Find the distance to fly.

From to 13MI

Sunrise and sunset
Times for 06-May-2021
 Local
(UTC-4)
 Zulu
(UTC)
Morning civil twilight06:0410:04
Sunrise06:3510:35
Sunset20:4700:47
Evening civil twilight21:1801:18

Current date and time
Zulu (UTC)  06-May-2021 05:01:06
Local (UTC-4)  06-May-2021 01:01:06
 
METAR
KBEH 
16nm NW 
060453Z AUTO 00000KT 10SM FEW120 03/01 A3015 RMK AO2 SLP214 T00280006 401000017
KEKM 
17nm S 
060052Z 35004KT 10SM SKC 09/M02 A3014 RMK AO2 LAST
KSBN 
19nm SW 
060454Z AUTO 00000KT 10SM CLR 04/M01 A3016 RMK AO2 SLP217 T00441006 401280039
KLWA 
23nm N 
060455Z AUTO 00000KT 10SM CLR 01/00 A3015 RMK AO2 T00111005
KHAI 
23nm E 
060455Z AUTO 00000KT 10SM CLR 04/00 A3015 RMK AO2 T00351005
KAZO 
29nm NE 
060453Z AUTO 00000KT 10SM CLR 04/M02 A3014 RMK AO2 SLP212 T00391017 401440039
KGSH 
31nm SE 
060453Z AUTO 20004KT 10SM CLR 03/M01 A3016 RMK AO2 SLP216 T00281006 401330028
KIRS 
32nm E 
060455Z AUTO 00000KT 10SM CLR 04/M01 A3014 RMK AO2 T00391007
TAF
KSBN 
19nm SW 
051720Z 0518/0618 33015KT P6SM SCT030 FM052300 VRB03KT P6SM SKC FM061500 15005KT P6SM -RA OVC035
NOTAMs
Click for the latest NOTAMs
NOTAMs are issued by the DoD/FAA and will open in a separate window not controlled by AirNav.

 

 
 

Would you like to see your business listed on this page?

 If your business provides an interesting product or service to pilots, flight crews, aircraft, or users of the Lee Memorial Hospital Heliport, you should consider listing it here.  To start the listing process, click on the button below
 
Add a business
 

Other Pages about Lee Memorial Hospital Heliport

Update a link
 
Copyright © AirNav, LLC. All rights reserved. Privacy Policy  Contact